Weather observations for the past three days for
Bennington Morse State Airport
Imperial (Metric)
Date Time (edt) Wind (mph) Vis. (mi.) Weather Sky Cond. Temperature (ºF) Relative Humidity Wind Chill (°F) Heat Index (°F) Pressure Precipitation (in)
Air Dwpt 6 hour altimeter (in) sea level (mb) 1 hr 3 hr 6 hr
Max. Min.
20 08:54 Calm 8.00 Fair CLR 78.1 72 82% 80 30.31 1025.8
20 07:54 Calm 6.00 Fog/Mist CLR 73.9 71.1 73.9 68 91% 30.3 1025.4
20 06:54 Calm 4.00 Fog/Mist CLR 70 68 93% 30.29 1025.3
20 05:54 Calm 1.25 Fog/Mist CLR 68 66 93% 30.28 1024.9
20 04:54 Calm 2.00 Fog/Mist CLR 68 66.9 96% 30.28 1025.0
20 03:54 Calm 3.00 Fog/Mist SCT044 69.1 66.9 93% 30.29 1024.9
20 02:54 Calm 5.00 Fog/Mist CLR 69.1 66.9 93% 30.29 1025.0
20 01:54 Calm 4.00 Fog/Mist CLR 69.1 66.9 78.1 69.1 93% 30.3 1025.3
20 00:54 Calm 7.00 Fair CLR 70 68 93% 30.3 1025.3
19 23:54 SE 3 9.00 Fair CLR 71.1 68 90% 30.3 1025.2
19 22:54 Calm 9.00 Fair CLR 71.1 68 90% 30.31 1025.8
19 21:54 Calm 10.00 Fair CLR 72 69.1 91% 30.31 1025.7
19 20:54 Calm 10.00 Fair CLR 73.9 69.1 85% 30.29 1025.2
19 19:54 Calm 10.00 Fair CLR 78.1 70 91 73 76% 80 30.29 1025.2 0.09
19 18:54 SW 3 10.00 Partly Cloudy SCT049 79 72 79% 82 30.29 1025.2
19 17:54 Calm 10.00 Fair CLR 78.1 72 82% 80 30.28 1025.0
19 16:54 S 6 9.00 Thunderstorm in Vicinity Light Rain SCT120 73.9 70 88% 30.28 1025.1 0.09 0.09
19 15:54 NW 12 G 22 9.00 Thunderstorm in Vicinity FEW120 84.9 75 72% 93 30.29 1025.1
19 14:54 N 6 10.00 A Few Clouds FEW045 FEW060 91 75.9 61% 103 30.28 1024.5
19 13:54 NW 3 10.00 Fair CLR 90 73.9 93 80.1 59% 99 30.28 1024.7
19 12:54 Vrbl 5 10.00 Fair CLR 90 75 62% 100 30.29 1025.0
19 11:54 Calm 10.00 Fair CLR 90 73.9 59% 99 30.31 1025.6
19 10:54 Vrbl 5 10.00 Fair CLR 87.1 73.9 65% 95 30.32 1026.0
19 09:54 SW 5 10.00 Fair CLR 84.9 73 68% 92 30.33 1026.3
19 08:54 Calm 10.00 Fair CLR 82.9 72 70% 88 30.33 1026.3
19 07:54 Calm 10.00 Fair CLR 80.1 71.1 80.1 69.1 74% 84 30.32 1026.1
19 06:54 Calm 4.00 Fog/Mist CLR 73 70 90% 30.31 1025.8
19 05:54 Calm 0.75 Fog/Mist CLR 69.1 66.9 93% 30.3 1025.3
19 04:54 Calm 4.00 Fog/Mist CLR 69.1 66.9 93% 30.28 1024.7
19 03:54 Calm 5.00 Fog/Mist CLR 70 68 93% 30.28 1024.5
19 02:54 Calm 7.00 Fair CLR 71.1 68 90% 30.27 1024.1
19 01:54 Calm 9.00 Fair CLR 72 68 86 72 87% 30.26 1023.9
19 00:54 Calm 9.00 Partly Cloudy SCT060 73 69.1 87% 30.26 1023.8
18 23:54 S 3 10.00 Fair CLR 75 69.1 82% 75 30.25 1023.4
18 22:54 E 6 10.00 Fair CLR 75 69.1 82% 75 30.24 1023.2
18 21:54 Calm 10.00 Fair CLR 75.9 70 82% 77 30.23 1023.0
18 20:54 Calm 10.00 Fair CLR 81 72 74% 85 30.21 1022.4
18 19:54 SW 3 10.00 Fair CLR 86 72 91.9 86 63% 92 30.2 1021.9
18 18:54 W 5 10.00 Fair CLR 88 72 59% 95 30.19 1021.7
18 17:54 W 5 10.00 Fair CLR 90 69.1 50% 95 30.19 1021.6
18 16:54 Vrbl 3 10.00 Fair CLR 91.9 70 49% 98 30.19 1021.8
18 15:54 Vrbl 7 10.00 Fair CLR 91.9 70 49% 98 30.2 1022.1
18 14:54 Vrbl 5 10.00 Fair CLR 91.9 70 49% 98 30.2 1022.1
18 13:54 W 5 10.00 Fair CLR 90 71.1 90 77 54% 96 30.2 1022.1
18 12:54 Calm 10.00 Fair CLR 90 70 52% 95 30.22 1022.6
18 11:54 Vrbl 6 10.00 Fair CLR 88 70 55% 93 30.23 1023.1
18 10:54 Vrbl 3 10.00 Fair CLR 86 68 55% 89 30.24 1023.4
18 09:54 W 3 10.00 Fair CLR 84 68 59% 87 30.24 1023.3
18 08:54 Calm 10.00 Fair CLR 82 70 67% 86 30.22 1022.8
18 07:54 Calm 10.00 Fair CLR 77 68 77 63 74% 79 30.22 1022.7
18 06:54 Calm 8.00 Fair CLR 70 66 87% 30.21 1022.5
18 05:54 S 5 5.00 Fog/Mist CLR 64 62.1 93% 30.2 1022.1
18 04:54 Calm 3.00 Fog/Mist CLR 64 62.1 93% 30.18 1021.4
18 03:54 Calm 6.00 Fog/Mist CLR 66 64 93% 30.15 1020.4
18 02:54 Calm 9.00 Fair CLR 66 63 90% 30.15 1020.4
18 01:54 Calm 10.00 Fair CLR 68 64 80.1 66.9 87% 30.15 1020.2
18 00:54 Calm 10.00 Fair CLR 71.1 64 79% 30.15 1020.3
17 23:54 Calm 10.00 A Few Clouds FEW060 72 64.9 79% 30.15 1020.5
17 22:54 Calm 10.00 A Few Clouds FEW065 72 66 82% 30.14 1020.0
17 21:54 Calm 10.00 Overcast OVC065 77 66.9 71% 79 30.14 1020.0
17 20:54 Vrbl 3 10.00 Partly Cloudy SCT065 75 66.9 76% 76 30.11 1019.1
17 19:54 Calm 10.00 Overcast OVC080 80.1 68 86 80.1 67% 83 30.1 1018.7
17 18:54 S 5 10.00 Partly Cloudy SCT075 82.9 66.9 59% 86 30.08 1018.3
17 17:54 S 7 10.00 Overcast BKN075 OVC090 84 66.9 57% 87 30.08 1018.1
17 16:54 Vrbl 5 10.00 Mostly Cloudy FEW050 BKN075 84.9 66.9 55% 88 30.08 1018.0
17 15:54 Vrbl 5 10.00 Partly Cloudy SCT044 84.9 68 57% 88 30.08 1018.1
17 14:54 E 3 10.00 Partly Cloudy SCT040 82 66.9 60% 85 30.11 1019.1
17 13:54 NW 3 10.00 Partly Cloudy FEW040 SCT095 81 66 82 66.9 61% 83 30.11 1019.2
17 12:54 S 3 10.00 Partly Cloudy SCT095 79 64.9 62% 81 30.13 1019.8
17 11:54 Vrbl 7 10.00 Fair CLR 80.1 64 58% 82 30.11 1019.1
17 10:54 S 9 10.00 Fair CLR 77 63 62% 79 30.13 1019.8
17 09:54 Vrbl 3 10.00 Fair CLR 73.9 61 64% 30.16 1020.9
Date Time (edt) Wind (mph) Vis. (mi.) Weather Sky Cond. Air Dwpt Max. Min. Relative Humidity Wind Chill (°F) Heat Index (°F) altimeter (in) sea level (mb) 1 hr 3 hr 6 hr
6 hour
Temperature (ºF) Pressure Precipitation (in)